Location: Andiroba
(19.8650°S, 43.9258°W)
Time: 01:01:42
(UTC+00:00)

ARIANE 5 R/B - Pass Details

Date: 15 June 2024
Orbit: 747 x 793 km, 98.8° (Epoch: 24 July)

Event Time Altitude Azimuth Distance (km) Brightness Sun altitude
Rises 07:24:33 0° 16° (NNE) 3,188 6.1 -28.1°
Reaches altitude 10° 07:26:49 10° 17° (NNE) 2,276 5.3 -27.6°
Maximum altitude 07:31:49 81° 103° (ESE) 780 2.5 -26.5°
Enters shadow 07:32:38 63° 174° (S) 856 2.6 -26.3°
